SCP
0 0 0 0 0 0 0 0 0 0 0 0 0 0 0 0 0 0 0 0 0 0 0 0 0 0 0 1 1 0 0 0 0 0 0 0 0 0 0 0 0 0 0 0 0 0 0 0 0
0 0 0 0 0 0 0 0 0 0 0 0 0 0 0 0 0 0 0 0 0 0 0 0 0 0 1 1 1 0 0 0 0 0 0 0 0 0 0 0 0 0 0 0 0 0 0 0 0
0 0 0 0 0 0 0 0 0 0 0 0 0 0 0 0 0 0 0 0 0 0 0 0 0 1 1 1 1 1 1 0 0 0 0 0 0 0 0 0 0 0 0 0 0 0 0 0 0
0 0 0 0 0 0 0 0 0 0 0 0 0 0 0 0 0 0 0 0 0 0 1 1 1 1 1 1 1 1 1 1 0 0 0 0 0 0 0 0 0 0 0 0 0 0 0 0 0
0 0 0 0 0 0 0 0 0 0 0 0 0 0 0 0 0 0 0 0 1 1 1 1 1 1 1 1 1 1 1 1 1 0 0 0 0 0 0 0 0 0 0 0 0 0 0 0 0
0 0 0 0 0 0 0 0 0 0 0 0 0 0 0 0 0 0 0 1 1 1 1 1 1 1 1 1 1 1 1 1 1 1 0 0 0 0 0 0 0 0 0 0 0 0 0 0 0
0 0 0 0 0 0 0 0 0 0 0 0 0 0 0 0 0 0 1 1 1 1 1 1 1 1 1 1 1 1 1 1 1 1 0 0 0 0 0 0 0 0 0 0 0 0 0 0 0
0 0 0 0 0 0 0 0 0 0 0 0 0 0 0 0 0 1 1 1 1 1 1 1 1 1 1 1 1 1 1 1 1 0 0 0 0 0 0 0 0 0 0 0 0 0 0 0 0
0 0 0 0 0 0 0 0 0 0 0 0 0 0 0 0 0 1 1 1 1 1 1 1 1 1 1 1 0 0 0 0 0 0 0 0 0 0 0 0 0 0 0 0 0 0 0 0 0
0 0 0 0 0 0 0 0 0 0 0 0 0 0 0 0 1 1 1 1 1 1 1 1 1 1 1 1 0 0 0 0 0 0 0 0 0 0 0 0 0 0 0 0 0 0 0 0 0
0 0 0 0 0 0 0 0 0 0 0 0 0 0 0 1 1 1 1 1 1 1 1 1 1 1 1 1 0 0 0 0 0 0 0 0 0 0 0 0 0 0 0 0 0 0 0 0 0
0 0 0 0 0 0 0 0 0 0 0 0 0 0 1 1 1 1 1 1 1 1 1 1 1 1 1 1 1 0 0 0 0 0 0 0 0 0 0 0 0 0 0 0 0 0 0 0 0
0 0 0 0 0 0 0 0 0 0 0 0 0 0 0 1 1 1 1 1 1 1 1 1 1 1 1 1 1 1 0 0 0 0 0 0 0 0 0 0 0 0 0 0 0 0 0 0 0
0 0 0 0 0 0 0 0 0 0 0 0 0 0 0 0 1 1 1 1 1 1 1 1 1 1 1 1 1 1 1 0 0 0 0 0 0 0 0 0 0 0 0 0 0 0 0 0 0
0 0 0 0 0 0 0 0 0 0 0 0 0 0 0 0 0 0 0 1 1 1 1 1 1 1 1 1 1 1 1 1 0 0 0 0 0 0 0 0 0 0 0 0 0 0 0 0 0
0 0 0 0 0 0 0 0 0 0 0 0 0 0 0 0 0 0 0 0 1 1 1 1 1 1 1 1 1 1 1 1 1 1 0 0 0 0 0 0 0 0 0 0 0 0 0 0 0
0 0 0 0 0 0 0 0 0 0 0 0 0 0 0 0 0 0 0 0 0 1 1 1 1 1 1 1 1 1 1 1 1 1 1 0 0 0 0 0 0 0 0 0 0 0 0 0 0
0 0 0 0 0 0 0 0 0 0 0 0 0 0 0 0 0 0 0 0 0 1 1 1 1 1 1 1 1 1 1 1 1 1 1 1 0 0 0 0 0 0 0 0 0 0 0 0 0
0 0 0 0 0 0 0 0 0 0 0 0 0 0 0 0 0 0 0 0 0 0 1 1 1 1 1 1 1 1 1 1 1 2 1 1 1 1 0 0 0 0 0 0 0 0 0 0 0
0 0 0 0 0 0 0 0 0 0 0 0 0 0 0 0 0 0 0 0 0 0 1 1 1 1 1 1 1 1 1 1 1 2 2 2 1 1 1 1 0 0 0 0 0 0 0 0 0
0 0 0 0 0 0 0 0 0 0 0 0 0 0 0 0 0 0 0 0 0 0 1 1 1 1 1 1 2 1 1 1 1 2 2 2 2 1 1 1 1 0 0 0 0 0 0 0 0
0 0 0 0 0 0 0 0 0 0 0 0 0 0 0 0 0 0 0 0 0 0 1 1 1 1 1 2 2 2 1 1 1 1 1 1 2 2 1 1 1 1 1 0 0 0 0 0 0
0 0 0 0 0 0 0 0 0 0 0 0 0 0 0 0 0 0 0 0 0 0 1 1 1 1 1 2 2 2 1 1 1 1 1 1 1 1 1 1 1 1 1 1 1 0 0 0 0
0 0 0 0 0 0 0 0 0 0 0 0 0 0 0 0 0 0 0 0 0 0 0 1 1 1 1 2 2 2 2 1 1 1 1 1 1 1 1 1 2 1 1 1 1 1 0 0 0
0 0 0 0 0 0 0 0 0 0 0 0 0 0 0 0 0 0 0 0 0 0 0 0 1 1 1 2 2 2 2 2 1 1 1 1 1 1 1 1 1 1 1 1 1 1 1 0 0
0 0 0 0 0 0 0 0 0 0 0 0 0 0 0 0 0 0 0 0 0 0 0 0 0 1 1 2 2 2 2 2 1 1 1 1 1 1 1 1 1 1 1 1 1 1 1 1 1
0 0 0 0 0 0 0 0 0 0 0 0 0 0 0 0 0 0 0 0 0 0 0 0 0 1 1 1 2 2 2 2 1 1 1 1 1 1 1 1 1 1 1 2 2 2 1 1 1
0 0 0 0 0 0 0 0 0 0 0 0 0 0 0 0 0 0 0 0 0 0 0 0 0 0 0 1 1 1 1 1 1 1 1 1 1 1 1 1 1 1 1 1 2 2 1 1 1
0 0 0 0 0 0 0 0 0 0 0 0 0 0 0 0 0 0 0 0 0 0 0 0 0 0 0 0 0 1 1 1 1 1 1 1 0 0 0 0 0 0 1 1 1 2 1 1 1
0 0 0 0 0 0 0 0 0 0 0 0 0 0 0 0 0 0 0 0 0 0 0 0 0 0 0 0 0 0 0 0 1 1 1 1 0 0 0 0 0 0 1 1 1 1 1 1 1
Wind_Speed
11 4 2 4 6 4 2 4 3 2 2 1 3 5 6 6 6 4 1 8 10 12 11 13 15 16 16 15 15 14 13 13 14 13 13 13 13 13 12 12 12 12 13 13 13 13 13 12 12
4 2 4 5 5 1 5 4 4 4 2 2 2 3 3 2 1 3 4 7 11 12 11 12 15 16 16 15 15 14 14 13 13 13 12 12 12 12 12 12 12 12 12 12 12 12 11 11 11
3 3 4 4 4 6 5 4 4 2 1 2 1 1 2 3 3 5 5 10 10 10 9 11 15 16 16 15 15 14 14 13 13 13 12 12 12 12 12 11 11 11 11 11 11 10 10 10 10
3 5 5 3 5 6 5 3 2 1 1 1 2 1 1 1 3 4 8 11 11 9 9 11 15 16 16 15 15 14 14 13 13 13 12 12 11 11 11 11 10 10 10 10 10 9 9 8 9
4 4 2 1 5 5 4 3 2 2 1 1 2 2 2 3 3 7 11 11 12 10 8 10 14 14 15 15 15 14 14 13 13 12 12 11 11 11 10 10 10 10 9 9 9 8 7 7 7
4 4 2 4 6 4 3 2 2 1 1 1 3 2 2 1 5 8 10 9 9 10 8 9 12 13 13 13 13 13 13 12 12 12 12 11 11 10 10 9 9 9 9 8 8 6 6 5 6
4 4 4 4 4 4 3 1 3 2 2 4 4 3 2 1 4 7 8 8 7 8 8 7 8 9 11 12 12 11 11 11 11 11 10 10 9 9 9 8 8 8 8 7 6 5 4 4 4
3 4 3 3 4 5 2 1 1 3 4 1 4 4 4 3 6 7 7 7 7 7 8 8 7 7 7 7 10 11 10 10 11 10 10 9 8 8 7 7 7 7 7 6 6 5 4 3 2
3 3 4 5 5 4 1 0 2 1 1 0 1 1 2 6 10 10 7 7 8 9 8 8 8 7 6 6 8 9 9 9 9 8 10 8 5 4 4 5 6 6 6 6 5 4 3 2 1
3 4 7 3 3 2 2 1 1 1 1 1 2 3 3 8 11 12 11 13 13 13 12 9 9 8 7 6 5 4 5 5 5 5 6 4 4 3 4 5 6 6 5 5 5 4 2 2 0
2 5 2 2 1 1 2 2 1 3 3 4 3 2 3 6 9 11 12 12 12 12 11 10 10 9 8 6 5 4 3 3 4 5 5 4 3 3 3 2 2 3 3 2 2 1 1 1 1
1 3 2 3 3 2 3 2 3 5 6 4 4 4 6 8 11 13 13 11 10 10 12 11 10 9 9 7 5 5 4 4 4 5 6 5 3 3 3 2 2 2 2 2 2 1 2 2 2
2 3 3 4 5 4 4 5 5 6 6 3 1 3 6 9 10 10 8 7 8 10 11 11 11 11 10 8 6 7 6 6 5 5 6 6 5 5 4 3 3 3 3 3 3 3 3 3 3
3 4 5 5 4 3 4 6 4 6 3 2 2 5 7 8 8 7 7 9 10 11 11 10 11 11 10 9 8 7 7 6 6 6 7 8 6 5 5 5 4 4 4 4 4 4 4 3 3
1 3 5 3 3 3 1 6 6 5 2 3 4 5 6 7 6 8 9 10 11 10 10 11 11 11 11 11 10 7 7 7 7 7 7 8 7 7 6 5 5 5 4 4 3 4 3 3 3
1 0 3 4 2 2 2 10 6 3 3 6 6 5 5 7 7 7 7 7 7 7 9 11 10 12 13 11 10 8 7 8 7 7 7 9 9 8 7 6 6 5 4 4 4 4 3 4 3
1 2 4 4 2 1 3 8 7 5 4 7 7 7 6 7 7 8 7 7 7 8 9 10 11 12 13 12 9 8 7 8 7 7 7 8 9 9 7 6 5 5 5 5 5 4 3 4 4
2 3 3 5 3 3 6 10 10 6 6 8 8 8 7 8 9 8 7 7 7 7 8 9 10 11 11 9 7 6 7 7 7 7 8 9 8 9 8 6 6 6 5 5 5 5 4 3 3
2 3 6 5 4 3 8 12 12 9 7 8 8 8 9 9 8 6 6 5 5 5 7 9 10 10 9 8 8 8 9 8 8 8 9 10 9 10 9 7 6 7 7 7 6 5 5 4 2
4 6 6 5 3 4 8 13 11 9 8 8 9 9 9 8 7 6 5 5 5 6 7 8 10 10 10 10 9 6 6 6 6 6 7 9 9 10 9 9 7 7 6 6 6 5 4 3 4
6 7 6 5 6 4 5 10 6 6 5 6 6 6 6 7 7 6 5 6 5 5 6 6 8 9 10 10 6 4 4 3 5 6 7 9 10 10 9 10 8 8 7 7 8 7 7 5 4
8 4 5 5 4 4 1 8 7 5 6 5 6 5 6 6 5 5 5 5 5 6 6 6 6 7 7 8 8 9 9 9 9 7 6 7 9 9 10 9 9 9 7 7 7 8 6 6 5
4 2 5 6 5 6 4 7 8 2 5 6 5 5 6 5 5 5 5 5 5 5 4 4 5 6 5 6 9 9 9 8 5 5 5 6 6 8 10 9 9 9 8 8 8 8 8 7 6
2 2 3 2 2 8 8 7 8 3 5 4 4 4 5 5 5 5 5 5 5 5 4 3 2 4 4 5 6 8 10 8 6 6 6 6 5 6 8 9 9 9 8 8 9 8 9 8 7
1 1 1 2 3 8 4 6 8 4 3 2 3 4 4 4 4 5 6 6 6 5 5 3 2 2 2 3 4 6 7 8 8 7 7 6 5 6 8 8 8 8 8 8 8 8 8 9 9
3 5 5 4 5 5 3 8 7 3 2 2 2 3 4 4 5 5 5 5 5 5 5 5 3 3 2 2 3 4 4 4 4 5 5 6 5 5 6 7 7 8 7 7 7 7 8 7 9
1 4 3 3 3 5 6 6 7 3 3 4 5 5 5 5 6 6 6 5 5 6 6 5 5 4 3 2 2 2 2 3 3 3 4 3 4 4 5 6 6 7 7 8 8 6 7 7 8
3 2 1 2 4 7 7 6 5 3 4 5 6 6 6 6 6 6 6 6 5 5 5 6 5 5 4 3 2 2 2 2 2 2 2 3 3 3 4 5 6 6 6 7 7 6 6 7 8
2 2 3 2 3 4 6 7 3 2 2 4 5 6 6 6 6 5 5 5 5 6 6 6 6 6 6 5 4 3 2 2 1 1 2 2 2 3 3 4 5 5 6 6 6 7 6 7 7
3 4 4 4 5 5 6 9 2 2 4 4 5 6 5 5 6 5 5 5 5 5 5 6 6 6 6 6 5 4 4 4 3 2 2 2 2 2 3 3 3 4 5 5 6 7 7 7 8
Wind_Direction
333 337 51 57 54 51 239 244 217 216 221 202 154 156 164 170 173 206 134 141 137 147 156 157 155 153 151 149 146 145 144 140 137 133 131 127 124 122 120 117 114 112 110 107 104 102 98 95 93
322 343 49 60 93 183 259 243 223 219 195 115 88 111 134 210 195 140 140 153 144 148 152 155 154 155 153 153 152 151 149 145 141 139 135 133 130 128 125 121 119 116 113 110 108 106 102 96 92
334 39 77 81 142 195 230 230 214 252 193 147 110 118 175 204 179 175 170 149 141 147 150 154 155 156 156 156 156 156 154 150 147 144 140 136 135 133 130 126 122 119 116 114 111 109 104 97 93
38 44 58 94 224 224 222 237 203 93 32 88 131 143 274 293 183 173 145 145 142 146 149 156 157 159 160 159 159 158 157 154 152 149 145 141 138 136 133 132 128 124 121 118 115 111 104 98 95
55 75 76 239 245 251 248 251 196 181 199 173 140 171 263 347 105 132 143 148 149 149 151 158 159 161 162 163 163 162 159 158 157 156 151 146 144 143 139 136 135 133 130 126 121 113 106 102 98
57 74 133 233 250 266 262 217 171 197 208 183 151 165 246 37 129 145 147 149 150 150 151 157 161 163 164 166 166 165 163 162 161 159 156 153 151 151 148 144 144 143 140 135 128 121 111 105 103
111 124 194 220 248 263 254 190 179 201 226 220 173 158 268 207 160 144 140 137 143 149 151 157 162 165 167 168 168 167 165 164 164 162 159 155 154 154 152 150 151 152 150 146 138 132 121 113 108
125 129 193 219 224 248 267 226 190 187 228 213 152 163 227 210 142 129 127 135 146 155 161 163 164 164 166 168 170 169 167 167 167 164 159 158 158 156 156 157 160 162 161 158 152 149 143 127 111
93 110 208 212 207 244 290 336 323 306 135 5 225 198 278 135 136 138 144 158 169 174 176 173 172 170 167 168 174 172 172 172 168 166 164 160 157 157 160 169 170 174 173 169 170 171 167 138 111
107 182 221 216 196 233 273 222 241 29 20 310 333 1 66 136 156 166 175 181 185 188 186 183 181 178 173 177 170 171 172 171 167 163 163 158 155 161 164 176 180 180 179 183 189 189 172 136 100
164 209 249 276 258 255 270 285 259 152 227 217 221 236 144 166 176 187 191 192 195 191 190 190 187 184 181 179 172 175 172 170 170 169 167 160 157 161 165 164 178 180 180 182 196 187 159 164 189
231 262 280 293 309 287 247 254 249 210 228 247 234 188 177 187 197 201 202 201 194 192 196 194 190 189 189 184 182 180 181 182 184 182 174 168 170 176 178 180 180 180 178 182 185 193 207 216 223
246 282 287 290 292 276 266 247 243 246 261 274 212 179 197 205 215 217 213 205 198 199 198 197 195 195 192 190 191 189 192 192 189 186 186 182 182 187 189 191 189 192 187 189 195 205 216 228 235
257 279 289 289 282 271 254 269 246 255 258 252 206 208 216 218 223 226 218 211 207 207 204 198 199 201 197 197 197 196 195 194 191 195 195 191 191 191 192 197 199 202 199 197 199 207 215 227 234
283 305 310 280 261 262 278 280 238 253 256 261 245 230 231 234 232 232 228 222 215 212 205 202 202 201 203 204 202 199 197 194 199 201 198 198 197 196 196 201 205 206 198 198 202 213 218 233 241
29 14 283 285 259 262 173 257 263 277 272 266 262 255 247 247 240 241 244 240 228 218 210 207 204 204 207 207 204 203 200 199 203 201 200 204 204 200 199 206 211 201 193 196 203 208 217 232 238
76 241 250 288 276 282 215 260 279 289 266 264 263 262 258 262 261 251 245 240 233 223 216 210 206 206 208 208 206 205 201 203 203 201 202 204 205 204 204 210 209 193 197 204 208 211 210 227 237
231 244 246 252 283 291 266 267 284 293 270 264 264 264 263 261 258 255 250 243 237 228 218 217 211 210 207 204 204 205 207 208 205 205 207 203 203 203 205 209 204 193 200 208 209 216 214 223 233
219 240 264 265 286 288 268 275 281 286 280 272 268 264 262 262 266 265 256 252 243 234 221 216 215 213 202 200 203 205 212 211 210 210 208 204 203 201 204 208 204 200 207 210 206 207 217 225 200
242 258 264 286 294 281 280 281 278 269 259 253 258 262 264 271 279 275 267 251 236 235 230 224 219 216 207 207 205 203 203 207 211 208 208 206 204 201 204 207 206 204 208 209 208 205 212 215 186
245 239 245 270 312 286 291 290 269 271 266 274 272 266 271 269 275 282 277 259 244 237 234 230 225 220 214 210 200 186 181 183 198 209 213 211 206 203 203 206 205 204 204 212 212 208 210 220 209
257 243 247 262 276 277 250 284 278 266 282 283 285 288 285 286 289 291 297 294 267 247 236 231 227 223 218 208 200 199 203 208 212 211 211 207 203 206 207 205 206 207 209 212 212 210 212 211 218
249 264 249 252 247 265 235 253 278 277 273 283 284 285 290 294 297 299 299 299 300 287 262 240 227 223 217 207 206 206 214 219 213 200 203 207 207 209 209 207 208 211 213 214 211 209 211 213 215
237 300 292 262 233 250 233 228 273 234 247 291 306 307 304 307 316 319 324 334 337 340 329 303 251 231 223 206 204 207 211 212 206 204 207 210 210 212 214 211 211 213 214 214 215 213 213 215 216
215 152 328 312 253 249 227 226 253 245 246 255 295 313 321 335 342 342 346 351 345 348 349 342 333 281 248 217 210 212 214 212 213 211 211 211 212 214 215 214 217 216 217 215 213 214 217 216 216
241 201 206 229 241 277 245 234 248 249 273 300 315 331 340 344 346 346 342 344 342 348 355 356 350 329 306 257 236 228 223 214 217 219 213 212 215 217 213 211 215 216 218 219 218 219 218 216 218
232 231 229 240 281 273 254 269 286 296 332 339 341 343 338 337 343 345 348 354 356 358 359 1 355 342 334 324 293 268 245 235 229 226 222 218 219 217 211 208 210 215 217 217 216 222 221 217 219
196 186 144 206 233 253 264 255 257 307 322 331 334 331 329 337 344 347 350 353 356 356 358 4 4 357 344 344 332 320 288 264 244 215 222 228 225 216 216 215 214 215 217 218 217 219 222 223 223
227 206 197 211 222 234 265 262 241 252 311 320 321 328 324 326 329 329 331 346 359 3 5 7 5 3 2 356 343 342 333 312 304 283 256 242 234 224 219 224 224 220 219 218 218 221 218 222 228
232 219 200 218 247 236 261 267 285 289 309 317 316 318 321 323 324 327 336 349 357 360 359 0 2 0 355 352 356 356 356 351 336 306 294 287 262 248 236 222 225 230 229 222 220 224 224 224 228